Location: Miss�
(46.9484°N, 0.1922°W)
Time: 19:53:30
(UTC+00:00)

USA 307 - Pass Details

Date: 02 March 2021
Orbit: 567 x 577 km, 54.0° (Epoch: 13 April)

Event Time Altitude Azimuth Distance (km) Brightness Sun altitude
Rises 19:53:08 0° 287° (WNW) 2,784 7.9 -22.0°
Reaches altitude 10° 19:55:36 10° 298° (WNW) 1,884 6.6 -22.4°
Maximum altitude 19:59:27 31° 2° (N) 1,013 4.2 -23.1°
Enters shadow 20:00:00 30° 18° (NNE) 1,038 4.1 -23.2°
